• In Austria
  • List of Countries
  • For 7 days
  • Water Temperature
  • Satellite Maps
  • Weather Map
  • News
  • Weather Widgets
  • user-avatar
    Login

    Hourly Weather Córdoba

    Today, 20 May, Sunday

    Time Temperature Precipitation Wind Pressure Humidity
    00:00 +11°C° 0 mm 1 mps 728 mmHg 70%
    01:00 +10°C° 0 mm 1 mps 728 mmHg 71%
    02:00 +10°C° 0 mm 1 mps 727 mmHg 71%
    03:00 +10°C° 0 mm 1 mps 727 mmHg 72%
    04:00 +9°C° 0 mm 2 mps 727 mmHg 72%
    05:00 +9°C° 0 mm 2 mps 726 mmHg 73%
    06:00 +9°C° 0 mm 2 mps 726 mmHg 72%
    07:00 +9°C° 0 mm 2 mps 726 mmHg 71%
    08:00 +10°C° 0 mm 2 mps 726 mmHg 69%
    09:00 +12°C° 0 mm 3 mps 726 mmHg 62%
    10:00 +16°C° 0 mm 3 mps 726 mmHg 55%
    11:00 +18°C° 0 mm 4 mps 726 mmHg 48%
    12:00 +19°C° 0 mm 4 mps 726 mmHg 46%
    13:00 +20°C° 0 mm 4 mps 725 mmHg 45%
    14:00 +21°C° 0 mm 5 mps 724 mmHg 43%
    15:00 +19°C° 0 mm 4 mps 724 mmHg 48%
    16:00 +18°C° 0 mm 4 mps 723 mmHg 53%
    17:00 +17°C° 0 mm 4 mps 723 mmHg 58%
    18:00 +16°C° 0 mm 3 mps 723 mmHg 62%
    19:00 +13°C° 0 mm 3 mps 723 mmHg 66%
    20:00 +13°C° 0 mm 2 mps 723 mmHg 70%
    21:00 +13°C° 0 mm 2 mps 724 mmHg 71%
    22:00 +12°C° 0 mm 2 mps 724 mmHg 72%
    23:00 +12°C° 0 mm 2 mps 724 mmHg 72%

    Tomorrow, 21 May, Monday

    Time Temperature Precipitation Wind Pressure Humidity
    00:00 +12°C° 0 mm 2 mps 724 mmHg 73%
    01:00 +12°C° 0 mm 2 mps 724 mmHg 74%
    02:00 +10°C° 0 mm 2 mps 724 mmHg 74%
    03:00 +11°C° 0 mm 1 mps 724 mmHg 75%
    04:00 +11°C° 0 mm 1 mps 724 mmHg 75%
    05:00 +11°C° 0 mm 1 mps 724 mmHg 75%
    06:00 +11°C° 0 mm 1 mps 725 mmHg 76%
    07:00 +11°C° 0 mm 1 mps 726 mmHg 77%
    08:00 +11°C° 0 mm 1 mps 726 mmHg 77%
    09:00 +13°C° 0 mm 1 mps 727 mmHg 70%
    10:00 +15°C° 0 mm 2 mps 727 mmHg 64%
    11:00 +17°C° 0 mm 2 mps 728 mmHg 57%
    12:00 +18°C° 0 mm 2 mps 727 mmHg 56%
    13:00 +18°C° 0 mm 2 mps 727 mmHg 55%
    14:00 +19°C° 0 mm 3 mps 726 mmHg 53%
    15:00 +18°C° 0 mm 2 mps 726 mmHg 58%
    16:00 +17°C° 0 mm 2 mps 726 mmHg 63%
    17:00 +16°C° 0 mm 2 mps 726 mmHg 67%
    18:00 +15°C° 0 mm 2 mps 726 mmHg 72%
    19:00 +14°C° 0 mm 1 mps 727 mmHg 77%
    20:00 +13°C° 0 mm 1 mps 727 mmHg 82%
    21:00 +12°C° 0 mm 1 mps 727 mmHg 84%
    22:00 +12°C° 0 mm 1 mps 728 mmHg 86%
    23:00 +12°C° 0 mm 1 mps 728 mmHg 88%

    Day after tomorrow, 22 May, Tuesday

    Time Temperature Precipitation Wind Pressure Humidity
    00:00 +11°C° 0 mm 1 mps 728 mmHg 89%
    01:00 +11°C° 0 mm 1 mps 728 mmHg 89%
    02:00 +10°C° 0 mm 0 mps 728 mmHg 90%
    03:00 +11°C° 0 mm 1 mps 728 mmHg 90%
    04:00 +10°C° 0 mm 1 mps 728 mmHg 91%
    05:00 +10°C° 0 mm 1 mps 728 mmHg 91%
    06:00 +11°C° 0 mm 1 mps 728 mmHg 90%
    07:00 +10°C° 0 mm 0 mps 729 mmHg 89%
    08:00 +10°C° 0 mm 0 mps 729 mmHg 87%
    09:00 +13°C° 0 mm 1 mps 730 mmHg 80%
    10:00 +15°C° 0 mm 1 mps 730 mmHg 72%
    11:00 +16°C° 0 mm 2 mps 730 mmHg 65%
    12:00 +17°C° 0 mm 2 mps 730 mmHg 62%
    13:00 +18°C° 0 mm 2 mps 729 mmHg 59%
    14:00 +19°C° 0 mm 3 mps 729 mmHg 56%
    15:00 +18°C° 0 mm 2 mps 728 mmHg 60%
    16:00 +17°C° 0 mm 2 mps 728 mmHg 65%
    17:00 +16°C° 0 mm 2 mps 728 mmHg 69%
    18:00 +15°C° 0 mm 2 mps 728 mmHg 74%
    19:00 +14°C° 0 mm 2 mps 728 mmHg 79%
    20:00 +13°C° 0 mm 2 mps 729 mmHg 84%
    21:00 +12°C° 0 mm 2 mps 729 mmHg 86%
    22:00 +12°C° 0 mm 2 mps 729 mmHg 87%
    23:00 +12°C° 0 mm 2 mps 729 mmHg 88%

    23 May, Wednesday

    Time Temperature Precipitation Wind Pressure Humidity
    00:00 +12°C° 0 mm 2 mps 729 mmHg 88%
    01:00 +10°C° 0 mm 2 mps 729 mmHg 89%
    02:00 +10°C° 0 mm 2 mps 729 mmHg 90%
    03:00 +10°C° 0 mm 2 mps 728 mmHg 90%
    04:00 +10°C° 0 mm 2 mps 728 mmHg 90%
    05:00 +9°C° 0 mm 2 mps 728 mmHg 90%
    06:00 +10°C° 0 mm 2 mps 728 mmHg 88%
    07:00 +10°C° 0 mm 2 mps 729 mmHg 86%
    08:00 +10°C° 0 mm 2 mps 729 mmHg 84%
    09:00 +12°C° 0 mm 3 mps 730 mmHg 77%
    10:00 +14°C° 0 mm 4 mps 730 mmHg 69%
    11:00 +16°C° 0 mm 5 mps 730 mmHg 61%
    12:00 +17°C° 0 mm 5 mps 729 mmHg 59%
    13:00 +19°C° 0 mm 5 mps 729 mmHg 57%
    14:00 +20°C° 0 mm 5 mps 728 mmHg 55%
    15:00 +19°C° 0 mm 5 mps 728 mmHg 59%
    16:00 +18°C° 0 mm 4 mps 728 mmHg 63%
    17:00 +17°C° 0 mm 4 mps 728 mmHg 67%
    18:00 +16°C° 0 mm 3 mps 728 mmHg 72%
    19:00 +14°C° 0 mm 3 mps 729 mmHg 77%
    20:00 +13°C° 0 mm 3 mps 729 mmHg 81%
    21:00 +12°C° 0 mm 3 mps 729 mmHg 83%
    22:00 +12°C° 0 mm 3 mps 729 mmHg 84%
    23:00 +12°C° 0 mm 3 mps 729 mmHg 85%

    24 May, Thursday

    Time Temperature Precipitation Wind Pressure Humidity
    00:00 +11°C° 0 mm 3 mps 729 mmHg 85%
    01:00 +11°C° 0 mm 3 mps 729 mmHg 85%
    02:00 +11°C° 0 mm 3 mps 729 mmHg 85%
    03:00 +11°C° 0 mm 3 mps 729 mmHg 85%
    04:00 +11°C° 0 mm 3 mps 728 mmHg 85%
    05:00 +10°C° 0 mm 3 mps 728 mmHg 85%
    06:00 +11°C° 0 mm 3 mps 729 mmHg 83%
    07:00 +11°C° 0 mm 3 mps 729 mmHg 81%
    08:00 +11°C° 0 mm 3 mps 729 mmHg 79%
    09:00 +14°C° 0 mm 3 mps 729 mmHg 71%
    10:00 +17°C° 0 mm 4 mps 729 mmHg 62%
    11:00 +19°C° 0 mm 4 mps 730 mmHg 54%
    12:00 +20°C° 0 mm 5 mps 729 mmHg 52%
    13:00 +21°C° 0 mm 5 mps 728 mmHg 50%
    14:00 +22°C° 0 mm 5 mps 727 mmHg 48%
    15:00 +20°C° 0 mm 5 mps 727 mmHg 53%
    16:00 +19°C° 0 mm 4 mps 727 mmHg 57%
    17:00 +18°C° 0 mm 4 mps 726 mmHg 62%
    18:00 +17°C° 0 mm 4 mps 727 mmHg 67%
    19:00 +14°C° 0 mm 3 mps 727 mmHg 71%
    20:00 +13°C° 0 mm 3 mps 727 mmHg 76%
    21:00 +13°C° 0 mm 3 mps 727 mmHg 77%
    22:00 +12°C° 0 mm 3 mps 727 mmHg 78%
    23:00 +12°C° 0 mm 3 mps 727 mmHg 79%

    25 May, Friday

    Time Temperature Precipitation Wind Pressure Humidity
    00:00 +12°C° 0 mm 3 mps 727 mmHg 79%
    01:00 +12°C° 0 mm 3 mps 727 mmHg 79%
    02:00 +11°C° 0 mm 3 mps 727 mmHg 78%
    03:00 +11°C° 0 mm 3 mps 726 mmHg 78%
    04:00 +11°C° 0 mm 3 mps 726 mmHg 78%
    05:00 +11°C° 0 mm 3 mps 726 mmHg 78%
    06:00 +11°C° 0 mm 3 mps 726 mmHg 76%
    07:00 +11°C° 0 mm 3 mps 727 mmHg 74%
    08:00 +12°C° 0 mm 3 mps 727 mmHg 72%
    09:00 +14°C° 0 mm 4 mps 727 mmHg 64%
    10:00 +17°C° 0 mm 4 mps 727 mmHg 57%
    11:00 +20°C° 0 mm 5 mps 727 mmHg 49%
    12:00 +21°C° 0 mm 5 mps 726 mmHg 48%
    13:00 +21°C° 0 mm 5 mps 725 mmHg 46%
    14:00 +22°C° 0 mm 6 mps 724 mmHg 45%
    15:00 +21°C° 0 mm 5 mps 724 mmHg 50%
    16:00 +20°C° 0 mm 5 mps 724 mmHg 54%
    17:00 +19°C° 0 mm 4 mps 723 mmHg 59%
    18:00 +17°C° 0 mm 4 mps 723 mmHg 64%
    19:00 +15°C° 0 mm 4 mps 724 mmHg 68%
    20:00 +14°C° 0 mm 3 mps 724 mmHg 73%
    21:00 +14°C° 0 mm 3 mps 724 mmHg 75%
    22:00 +13°C° 0 mm 3 mps 724 mmHg 76%
    23:00 +13°C° 0 mm 3 mps 723 mmHg 78%
    Show more